This is the latest recevied weather packets stored in our database for station/object AA0PB. If no packets are shown the sender has not sent any weather packets the latest 1 day(s).
| Time | Temp. | Humidity | Pressure | Rain* | Wind** | Luminosity | Snow |
|---|---|---|---|---|---|---|---|
| 1778038472 | 16.67° C | 77% | 1016.2 hPa | 0 mm | - | 1 W/m² | - |
| 1778037866 | 16.67° C | 77% | 1016.1 hPa | 0 mm | - | 4 W/m² | - |
| 1778037562 | 16.67° C | 76% | 1016.3 hPa | 0 mm | - | 5 W/m² | - |
| 1778037260 | 16.67° C | 76% | 1016.1 hPa | 0 mm | - | 8 W/m² | - |
| 1778036655 | 17.22° C | 75% | 1016.1 hPa | 0 mm | - | 14 W/m² | - |
| 1778036352 | 17.22° C | 74% | 1016.2 hPa | 0 mm | - | 17 W/m² | - |
| 1778036049 | 17.22° C | 74% | 1016 hPa | 0 mm | - | 22 W/m² | - |
| 1778035443 | 17.78° C | 73% | 1015.8 hPa | 0 mm | - | 29 W/m² | - |
| 1778035138 | 17.78° C | 73% | 1015.7 hPa | 0 mm | - | 30 W/m² | - |
| 1778034532 | 18.33° C | 72% | 1016 hPa | 0 mm | - | 52 W/m² | - |
| 1778033624 | 18.89° C | 69% | 1015.6 hPa | 0 mm | - | 81 W/m² | - |
| 1778033321 | 18.89° C | 69% | 1015.6 hPa | 0 mm | - | 87 W/m² | - |
| 1778033019 | 18.89° C | 70% | 1015.5 hPa | 0 mm | - | 96 W/m² | - |
| 1778032110 | 18.89° C | 69% | 1015.6 hPa | 0 mm | - | 128 W/m² | - |
| 1778031807 | 18.89° C | 69% | 1015.6 hPa | 0 mm | - | 136 W/m² | - |
| 1778031504 | 18.89° C | 68% | 1015.4 hPa | 0 mm | - | 150 W/m² | - |
| 1778031201 | 18.89° C | 69% | 1015.7 hPa | 0 mm | - | 158 W/m² | - |
| 1778030897 | 18.89° C | 68% | 1015.5 hPa | 0 mm | - | 168 W/m² | - |
| 1778030292 | 18.89° C | 68% | 1015.8 hPa | 0 mm | - | 199 W/m² | - |
| 1778029988 | 19.44° C | 67% | 1015.7 hPa | 0 mm | - | 210 W/m² | - |
| 1778029686 | 19.44° C | 68% | 1015.8 hPa | 0 mm | - | 221 W/m² | - |
| 1778029384 | 18.89° C | 69% | 1015.7 hPa | 0 mm | - | 236 W/m² | - |
| 1778028777 | 18.33° C | 70% | 1015.7 hPa | 0 mm | - | 262 W/m² | - |
| 1778028473 | 18.89° C | 70% | 1015.8 hPa | 0 mm | - | 274 W/m² | - |
| 1778028171 | 18.89° C | 68% | 1015.8 hPa | 0 mm | - | 287 W/m² | - |
* Rain latest hour (hover to see other rain measurements)
** Current wind speed in m/s (hover to see current wind gust speed)